Regional Weather Roundup
Issued by NWS

Home | Current Version | Previous Version | Text Only | Print | Product List | Glossary Off
Versions: 1 2 3 4 5 6 7 8 9 10 11 12 13 14 15 16 17 18 19 20 21 22 23 24 25 26 27 28 29 30 31 32 33 34 35 36 37 38 39 40 41 42 43 44 45 46 47 48 49 50

000
ASUS43 KMPX 301101
RWRMN
WEATHER ROUNDUP FOR MINNESOTA
NATIONAL WEATHER SERVICE TWIN CITIES/CHANHASSEN MN
600 AM CDT THU OCT 30 2014


NOTE: "FAIR" INDICATES FEW OR NO CLOUDS BELOW 12,000 FEET WITH NO
SIGNIFICANT WEATHER AND/OR OBSTRUCTIONS TO VISIBILITY. N/A MEANS
CURRENT SKY AND/OR WEATHER CONDITIONS ARE NOT AVAILABLE.

MNZ060>063-068>070-301200-
   Twin Cities Metro

CITY           SKY/WX    TMP DP  RH WIND       PRES   REMARKS
TWIN CITIES    CLOUDY    39  32  76 E3        30.05S
ST PAUL        CLOUDY    39  34  82 SE5       30.06S
CRYSTAL        CLOUDY    40  34  79 E3        30.03S
BLAINE         CLOUDY    39  37  93 CALM      30.04S
LAKEVILLE      CLOUDY    36  34  93 CALM      30.04R
EDEN PRAIRIE   CLOUDY    39  34  82 SE3       30.03S
SOUTH ST PAUL  CLOUDY    39  34  82 CALM      30.05S
LAKE ELMO      DRIZZLE   37  36  93 CALM      30.06S
$$
MNZ001>005-007-008-013>017-022>024-027-028-301200-
   Northwest Minnesota

CITY           SKY/WX    TMP DP  RH WIND       PRES   REMARKS
BEMIDJI        MOCLDY    34  32  92 CALM      30.04R
HALLOCK        CLOUDY    32  30  93 N3        30.12R
ROSEAU         PTCLDY    34  28  80 CALM      30.09S
WARROAD        CLOUDY    34  30  86 CALM      30.09S
THIEF RVR FALL CLOUDY    36  32  87 N6        30.08R
CROOKSTON      CLOUDY    37  36  93 NE5       30.09R
FOSSTON        CLOUDY    34  32  93 CALM      30.05R
DETROIT LAKES  CLOUDY    36  34  93 E3        30.02R
MOORHEAD       CLOUDY    39  39 100 CALM      30.03R FOG
PARK RAPIDS    CLOUDY    36  33  89 NE3       30.03R
MAHNOMEN       LGT RAIN  36  35  97 NE3       30.03R
$$
MNZ006-009>011-018-025>026-301200-
   North Central Minnesota

CITY           SKY/WX    TMP DP  RH WIND       PRES   REMARKS
BAUDETTE       CLOUDY    34  30  85 W3        30.07R
FLAG ISLAND    MOCLDY    36  34  93 N10       30.07S
INTL FALLS     CLOUDY    34  32  92 W5        30.05R WCI  30
WASKISH        CLOUDY    34  32  93 CALM      30.07R
BIG FORK       CLOUDY    34  32  93 CALM      30.05S
LONGVILLE      CLOUDY    34  34 100 CALM      30.03R
GRAND RAPIDS   CLOUDY    34  30  86 CALM      30.04R
CRANE LAKE     CLOUDY    34  32  93 CALM      30.06S
ORR            CLOUDY    34  32  93 CALM      30.02S
COOK           CLOUDY    34  34 100 CALM      30.04S FOG
WALKER         CLOUDY    34  32  93 CALM      30.03R
$$
MNZ012-019>021-037-301200-
   Northeast Minnesota

CITY           SKY/WX    TMP DP  RH WIND       PRES   REMARKS
DULUTH         CLOUDY    36  32  85 W3        30.02F
ELY            CLOUDY    34  34 100 W5        30.03S WCI  30
HIBBING        CLOUDY    35  32  88 CALM      30.04R
EVELETH        CLOUDY    34  34 100 W5        30.04S WCI  30
DULUTH HARBOR  CLOUDY    39  34  81 CALM      30.06F
TWO HARBORS    CLOUDY    37 N/A N/A CALM      30.02S
SILVER BAY     CLOUDY    36  34  93 CALM      30.02R
GRAND MARAIS     N/A     41  35  79 CALM      30.03R
G MARAIS ARPRT CLOUDY    34  30  86 W1        30.00R
$$
MNZ029>031-032-039>041-046>048-054>057-064-301200-
   West Central Minnesota

CITY           SKY/WX    TMP DP  RH WIND       PRES   REMARKS
FERGUS FALLS   CLOUDY    39  36  87 S3        30.02R
WHEATON        CLOUDY    37  36  93 CALM      30.03R
MORRIS         CLOUDY    39  37  93 CALM      30.00R
ALEXANDRIA     CLOUDY    38  34  85 SE5       30.00S
ELBOW LAKE     CLOUDY    38  36  93 S3        30.00S
WADENA         CLOUDY    36  34  93 N3        30.01R
GLENWOOD       MOCLDY    37  36  93 CALM      30.01R
APPLETON       CLOUDY    39  37  93 CALM      30.01R
BENSON         CLOUDY    39  36  87 CALM      30.01R
ORTONVILLE     MOCLDY    36  34  93 CALM      30.00R FOG
MADISON        MOCLDY    43  41  93 CALM      30.00R
WILLMAR        CLOUDY    39  36  87 E7        30.01S
$$
MNZ033>034-036-042>043-049>051-058-059-301200-
   Central Minnesota

CITY           SKY/WX    TMP DP  RH WIND       PRES   REMARKS
ST CLOUD       CLOUDY    39  34  82 CALM      30.02F
SAUK CENTRE    CLOUDY    37  34  87 E3        30.02R
PAYNESVILLE    CLOUDY    36  33  90 CALM      30.01S
AITKIN         CLOUDY    37  32  81 CALM      30.02S
PINE RIVER     CLOUDY    36  36 100 CALM      30.06R
BRAINERD       CLOUDY    36  32  85 CALM      30.03S
STAPLES        CLOUDY    36  34  93 CALM      30.02R
LONG PRAIRIE   CLOUDY    36  34  93 E3        30.01S
LITTLE FALLS   CLOUDY    36  32  87 CALM      30.03R
LITCHFIELD     CLOUDY    39  37  93 CALM      30.02S
BUFFALO        CLOUDY    38  33  82 CALM      30.04S
MAPLE LAKE     CLOUDY    40  36  85 CALM      30.03S
$$
MNZ037-044-045-052-053-301200-
   East Central Minnesota

CITY           SKY/WX    TMP DP  RH WIND       PRES   REMARKS
PRINCETON      CLOUDY    37  36  93 E3        30.03F
MORA           MOCLDY    34  32  93 CALM      30.05F
CAMBRIDGE      CLOUDY    39  30  70 CALM      30.02S
RUSH CITY      CLOUDY    35  32  88 CALM      30.05S
MOOSE LAKE     CLOUDY    34  32  93 CALM      30.03S
HINCKLEY       CLOUDY    34  34 100 CALM      30.05S
CLOQUET        CLOUDY    34  32  93 CALM      30.03S
MCGREGOR       CLOUDY    34  32  93 CALM      30.04S
$$
MNZ071>073-080-081-089-090-097-098-301200-
   Southwest Minnesota

CITY           SKY/WX    TMP DP  RH WIND       PRES   REMARKS
MONTEVIDEO     MOCLDY    37  37 100 CALM      30.01R
GRANITE FALLS  CLOUDY    39  36  88 CALM      30.01S
CANBY          CLOUDY    42  37  81 S3        30.00R
MARSHALL       MOCLDY    39  34  81 S5        29.98S
REDWOOD FALLS  CLOUDY    40  35  83 E5        30.00S
OLIVIA         CLOUDY    39  36  87 SE5       30.00S
PIPESTONE      CLOUDY    43  34  70 CALM      29.96S
WINDOM         MOCLDY    39  34  81 CALM      29.99R
WORTHINGTON    CLOUDY    45  32  61 S5        29.99R
JACKSON        CLOUDY    41  32  70 CALM      30.00R
TRACY          CLOUDY    42  36  80 CALM      29.99S
SLAYTON        CLOUDY    40  35  80 CALM      29.99R
$$
MNZ065>067-074>077-082>085-091>093-301200-
   South Central Minnesota

CITY           SKY/WX    TMP DP  RH WIND       PRES   REMARKS
MANKATO        CLOUDY    39  30  70 SE7       30.02S
NEW ULM        LGT RAIN  39  36  87 CALM      30.01R
ST JAMES       MOCLDY    41  36  81 SE3       30.01S
FAIRMONT       CLOUDY    39  30  70 S5        30.00S
GLENCOE        DRIZZLE   39  36  91 E5        30.01F
FARIBAULT      CLOUDY    39  36  87 CALM      30.04S
OWATONNA       CLOUDY    39  34  81 SE3       30.04R
WASECA         CLOUDY    37  32  81 E5        30.04S
ALBERT LEA     CLOUDY    37  36  93 CALM      30.02S
$$
MNZ078>079-086>088-094>096-301200-
   Southeast Minnesota

CITY           SKY/WX    TMP DP  RH WIND       PRES   REMARKS
ROCHESTER      CLOUDY    36  33  89 S6        30.05S
RED WING       CLOUDY    39  34  81 CALM      30.05S
STANTON        CLOUDY    39  34  80 CALM      30.03S
DODGE CENTER   CLOUDY    37  36  93 SE5       30.04S
WINONA         CLOUDY    36  34  93 CALM      30.08R
AUSTIN         CLOUDY    36  34  93 SE5       30.03S
PRESTON        MOCLDY    35  32  88 S6        30.06S WCI  30
$$
ABBREVIATIONS USED IN REMARKS
   TC - TEMPERATURES IN CELSIUS
  WCI - WIND CHILL INDEX
   HX - HEAT INDEX
  VSB - VISIBILITY
$$



USA.gov is the U.S. government's official web portal to all federal, state and local government web resources and services.